{"data":{"norad_id":57249,"epoch":"2026-05-24T19:17:53.541024Z","epoch_age_seconds":85128,"freshness":"FRESH","line1":"1 57249U 23094AH  26144.80409191 -.00000400  00000+0 -50125-5 0  9997","line2":"2 57249  43.0021 309.7197 0001775 242.8322 117.2349 15.27570245158883","mean_motion":15.27570245,"eccentricity":0.0001775,"inclination_deg":43.0021,"raan_deg":309.7197,"arg_perigee_deg":242.8322,"mean_anomaly_deg":117.2349,"bstar":-5.0125e-6,"rev_number":15888,"period_min":94.267350697185,"perigee_km":481.86044045759,"apogee_km":484.29617189129,"semimajor_km":6861.2153061744,"source":"CELESTRAK","updated_at":"2026-05-25T13:38:18.258585Z"}}